Bremerton, WA

1:36 PM PDT on October 20, 2017 (GMT -0700)
Bremerton National

Weather History for KPWT - December, 2011

Change the Weather History Date:

Monday, December 12, 2011

  Actual Average Record
Temperature  
Mean Temperature 34 °F -  
Max Temperature 39 °F 43 °F 53 °F (1998)
Min Temperature 28 °F 33 °F 24 °F (2000)
Degree Days  
Heating Degree Days 32    
Moisture  
Dew Point 26 °F    
Average Humidity 70    
Maximum Humidity 93    
Minimum Humidity 52    
Precipitation  
Precipitation 0.00 in - - ()
Sea Level Pressure  
Sea Level Pressure 30.22 in    
Wind  
Wind Speed 9 mph (NNE)    
Max Wind Speed 16 mph    
Max Gust Speed 23 mph    
Visibility 10 miles    
Events      
Averages and records for this station are not official NWS values.
T = Trace of Precipitation, MM = Missing Value Source: NWS Daily Summary

Daily Weather History Graph

Daily Weather History Graph

Search for Another Location

Airport or City:

Trip Planner

Search our weather history database for the weather conditions in past years. The results will help you decide how hot, cold, wet, or windy it might be!

Date:

Astronomy

Dec. 12, 2011 Rise Set
Actual Time 7:49 AM PST 4:19 PM PST
Civil Twilight 7:13 AM PST 4:55 PM PST
Nautical Twilight 6:34 AM PST 5:34 PM PST
Astronomical Twilight 5:57 AM PST 6:12 PM PST
Moon 6:40 PM PST (12/12) 9:21 AM PST (12/12)
Length of Visible Light 9h 41m
Length of Day
8h 30m
Waning Gibbous, 95% of the Moon is Illuminated
Dec 12
Waning Gibbous
Dec 17
Last Quarter
Dec 24
New
Dec 31
First Quarter
Jan 8
Full

Hourly Weather History & Observations

Time (PST) Temp. Windchill Dew Point Humidity Pressure Visibility Wind Dir Wind Speed Gust Speed Precip Events Conditions
12:15 AM 35.6 °F 28.6 °F 24.8 °F 65% 30.24 in 10.0 mi North 9.2 mph 18.4 mph N/A   Clear
12:35 AM 37.4 °F 30.8 °F 24.8 °F 60% 30.23 in 10.0 mi North 9.2 mph 23.0 mph N/A   Clear
12:55 AM 37.4 °F 29.8 °F 23.0 °F 56% 30.22 in 10.0 mi North 11.5 mph 21.9 mph N/A   Clear
1:15 AM 37.4 °F 30.8 °F 21.2 °F 52% 30.22 in 10.0 mi North 9.2 mph 20.7 mph N/A   Clear
1:35 AM 37.4 °F 29.3 °F 23.0 °F 56% 30.24 in 10.0 mi North 12.7 mph 17.3 mph N/A   Clear
1:55 AM 35.6 °F 29.2 °F 23.0 °F 60% 30.23 in 10.0 mi NNE 8.1 mph 17.3 mph N/A   Clear
2:15 AM 35.6 °F 30.7 °F 23.0 °F 60% 30.24 in 10.0 mi NNE 5.8 mph - N/A   Clear
2:35 AM 35.6 °F 29.2 °F 23.0 °F 60% 30.24 in 10.0 mi NNE 8.1 mph 17.3 mph N/A   Clear
2:55 AM 35.6 °F 28.6 °F 23.0 °F 60% 30.24 in 10.0 mi North 9.2 mph 17.3 mph N/A   Clear
3:15 AM 35.6 °F 28.6 °F 23.0 °F 60% 30.23 in 10.0 mi North 9.2 mph 16.1 mph N/A   Clear
3:35 AM 35.6 °F 28.0 °F 23.0 °F 60% 30.24 in 10.0 mi North 10.4 mph - N/A   Clear
3:55 AM 35.6 °F 28.6 °F 23.0 °F 60% 30.24 in 10.0 mi NNE 9.2 mph - N/A   Clear
4:15 AM 35.6 °F 27.5 °F 23.0 °F 60% 30.24 in 10.0 mi North 11.5 mph 20.7 mph N/A   Clear
4:35 AM 35.6 °F 27.5 °F 23.0 °F 60% 30.23 in 10.0 mi North 11.5 mph 17.3 mph N/A   Clear
4:55 AM 35.6 °F 27.5 °F 23.0 °F 60% 30.25 in 10.0 mi North 11.5 mph 18.4 mph N/A   Clear
5:15 AM 35.6 °F 27.5 °F 21.2 °F 56% 30.25 in 10.0 mi North 11.5 mph - N/A   Clear
5:35 AM 35.6 °F 31.7 °F 21.2 °F 56% 30.25 in 10.0 mi NE 4.6 mph - N/A   Clear
5:55 AM 33.8 °F 27.0 °F 21.2 °F 60% 30.25 in 10.0 mi NE 8.1 mph - N/A   Clear
6:15 AM 33.8 °F 25.8 °F 23.0 °F 65% 30.26 in 10.0 mi NNE 10.4 mph - N/A   Clear
6:35 AM 33.8 °F 27.7 °F 23.0 °F 65% 30.25 in 10.0 mi NE 6.9 mph - N/A   Clear
6:55 AM 33.8 °F 27.0 °F 23.0 °F 65% 30.25 in 10.0 mi NE 8.1 mph - N/A   Clear
7:15 AM 32.0 °F 24.2 °F 24.8 °F 75% 30.25 in 10.0 mi NNE 9.2 mph - N/A   Clear
7:35 AM 32.0 °F 28.7 °F 24.8 °F 75% 30.26 in 10.0 mi ENE 3.5 mph - N/A   Clear
7:55 AM 30.2 °F 25.4 °F 24.8 °F 80% 30.25 in 10.0 mi ENE 4.6 mph - N/A   Clear
8:15 AM 30.2 °F 25.4 °F 26.6 °F 86% 30.26 in 10.0 mi ENE 4.6 mph - N/A   Clear
8:35 AM 28.4 °F - 24.8 °F 86% 30.27 in 10.0 mi Calm Calm - N/A   Clear
8:55 AM 30.2 °F 26.7 °F 28.4 °F 93% 30.27 in 10.0 mi NNE 3.5 mph - N/A   Clear
9:15 AM 33.8 °F 29.6 °F 30.2 °F 87% 30.27 in 10.0 mi NE 4.6 mph - N/A   Clear
9:35 AM 33.8 °F 27.0 °F 30.2 °F 87% 30.28 in 10.0 mi NE 8.1 mph - N/A   Clear
9:55 AM 35.6 °F 29.2 °F 30.2 °F 81% 30.29 in 10.0 mi NNE 8.1 mph - N/A   Clear
10:15 AM 35.6 °F 27.1 °F 30.2 °F 81% 30.28 in 10.0 mi NNE 12.7 mph - N/A   Clear
10:35 AM 37.4 °F 29.8 °F 28.4 °F 70% 30.26 in 10.0 mi NNE 11.5 mph 16.1 mph N/A   Clear
10:55 AM 37.4 °F 29.3 °F 28.4 °F 70% 30.26 in 10.0 mi NNE 12.7 mph 18.4 mph N/A   Clear
11:15 AM 37.4 °F 29.3 °F 28.4 °F 70% 30.25 in 10.0 mi NNE 12.7 mph - N/A   Clear
11:35 AM 39.2 °F 30.5 °F 28.4 °F 65% 30.24 in 10.0 mi NNE 16.1 mph - N/A   Clear
12:35 PM 35.6 °F 28.6 °F 28.4 °F 75% 30.23 in 10.0 mi North 9.2 mph - N/A   Clear
12:55 PM 33.8 °F 25.3 °F 28.4 °F 81% 30.21 in 10.0 mi NNE 11.5 mph 16.1 mph N/A   Clear
1:15 PM 39.2 °F 32.0 °F 26.6 °F 61% 30.21 in 10.0 mi NNE 11.5 mph - N/A   Clear
1:35 PM 33.8 °F 27.0 °F 28.4 °F 81% 30.20 in 10.0 mi NNE 8.1 mph - N/A   Clear
1:55 PM 33.8 °F 27.0 °F 28.4 °F 81% 30.20 in 10.0 mi North 8.1 mph - N/A   Clear
2:15 PM 33.8 °F 27.7 °F 28.4 °F 81% 30.19 in 10.0 mi NNE 6.9 mph - N/A   Clear
2:35 PM 39.2 °F 33.0 °F 28.4 °F 65% 30.18 in 10.0 mi NNE 9.2 mph - N/A   Clear
3:15 PM 37.4 °F 32.1 °F 26.6 °F 65% 30.17 in 10.0 mi NE 6.9 mph - N/A   Clear
3:35 PM 35.6 °F 29.9 °F 26.6 °F 70% 30.18 in 10.0 mi NNE 6.9 mph - N/A   Clear
3:55 PM 35.6 °F 29.2 °F 26.6 °F 70% 30.18 in 10.0 mi North 8.1 mph - N/A   Clear
4:15 PM 35.6 °F 29.2 °F 26.6 °F 70% 30.18 in 10.0 mi NNE 8.1 mph - N/A   Clear
4:35 PM 35.6 °F 28.6 °F 26.6 °F 70% 30.17 in 10.0 mi NNE 9.2 mph - N/A   Clear
4:55 PM 33.8 °F 27.0 °F 26.6 °F 75% 30.17 in 10.0 mi NNE 8.1 mph - N/A   Clear
5:15 PM 33.8 °F 27.7 °F 26.6 °F 75% 30.17 in 10.0 mi NE 6.9 mph - N/A   Clear
5:35 PM 33.8 °F 28.6 °F 26.6 °F 75% 30.17 in 10.0 mi NNE 5.8 mph - N/A   Clear
5:55 PM 32.0 °F 26.4 °F 26.6 °F 80% 30.16 in 10.0 mi NNE 5.8 mph - N/A   Clear
6:15 PM 30.2 °F 23.4 °F 26.6 °F 86% 30.15 in 10.0 mi North 6.9 mph - N/A   Clear
6:35 PM 32.0 °F 25.6 °F 26.6 °F 80% 30.15 in 10.0 mi NNE 6.9 mph - N/A   Clear
6:55 PM 32.0 °F 24.2 °F 26.6 °F 80% 30.15 in 10.0 mi NNE 9.2 mph - N/A   Clear
7:15 PM 32.0 °F 24.2 °F 24.8 °F 75% 30.14 in 10.0 mi NE 9.2 mph - N/A   Clear
7:35 PM 32.0 °F 24.8 °F 26.6 °F 80% 30.14 in 10.0 mi NNE 8.1 mph - N/A   Clear
7:55 PM 32.0 °F 27.5 °F 24.8 °F 75% 30.13 in 10.0 mi ENE 4.6 mph - N/A   Clear
8:15 PM 30.2 °F - 24.8 °F 80% 30.13 in 10.0 mi Calm Calm - N/A   Clear
8:35 PM 28.4 °F - 24.8 °F 86% 30.14 in 10.0 mi Calm Calm - N/A   Clear
8:55 PM 26.6 °F - 23.0 °F 86% 30.13 in 10.0 mi Calm Calm - N/A   Clear
9:15 PM 24.8 °F - 21.2 °F 86% 30.12 in 10.0 mi Calm Calm - N/A   Clear
9:35 PM 24.8 °F - 21.2 °F 86% 30.11 in 10.0 mi Calm Calm - N/A   Clear
9:55 PM 24.8 °F - 21.2 °F 86% 30.11 in 10.0 mi Calm Calm - N/A   Clear
10:15 PM 23.0 °F - 19.4 °F 86% 30.11 in 10.0 mi Calm Calm - N/A   Clear
10:35 PM 23.0 °F - 21.2 °F 93% 30.11 in 10.0 mi Calm Calm - N/A   Clear
10:55 PM 21.2 °F 16.4 °F 19.4 °F 93% 30.11 in 10.0 mi SW 3.5 mph - N/A   Clear
11:15 PM 21.2 °F - 21.2 °F 100% 30.11 in 10.0 mi Calm Calm - N/A   Clear
11:35 PM 21.2 °F - 19.4 °F 93% 30.10 in 10.0 mi Calm Calm - N/A   Clear
11:55 PM 23.0 °F - 21.2 °F 93% 30.10 in 10.0 mi Calm Calm - N/A   Clear